This is the latest recevied weather packets stored in our database for station/object KE5QKR. If no packets are shown the sender has not sent any weather packets the latest 10 day(s).
| Time | Temp. | Humidity | Pressure | Rain* | Wind** | Luminosity | Snow |
|---|---|---|---|---|---|---|---|
| 1778205077 | 21.11° C | 90% | 1013 hPa | 0 mm | - | 0 W/m² | - |
| 1778204774 | 21.11° C | 91% | 1013 hPa | 0 mm | - | 0 W/m² | - |
| 1778204470 | 21.11° C | 91% | 1013 hPa | 0 mm | - | 0 W/m² | - |
| 1778204167 | 21.67° C | 91% | 1012.7 hPa | 0 mm | - | 0 W/m² | - |
| 1778203863 | 21.67° C | 90% | 1012.7 hPa | 0 mm | - | 0 W/m² | - |
| 1778203561 | 21.67° C | 90% | 1012.8 hPa | 0 mm | - | 0 W/m² | - |
| 1778203258 | 21.67° C | 90% | 1012.5 hPa | 0 mm | - | 0 W/m² | - |
| 1778202956 | 21.67° C | 90% | 1012.4 hPa | 0 mm | - | 0 W/m² | - |
| 1778202653 | 21.67° C | 90% | 1012.2 hPa | 0 mm | - | 0 W/m² | - |
| 1778202350 | 22.22° C | 90% | 1012.3 hPa | 0 mm | - | 0 W/m² | - |
| 1778202048 | 22.22° C | 90% | 1012.1 hPa | 0 mm | - | 0 W/m² | - |
| 1778201744 | 22.22° C | 89% | 1011.9 hPa | 0 mm | - | 0 W/m² | - |
| 1778201441 | 22.22° C | 89% | 1011.7 hPa | 0 mm | - | 0 W/m² | - |
| 1778201137 | 22.78° C | 89% | 1011.9 hPa | 0 mm | - | 1 W/m² | - |
| 1778200834 | 22.78° C | 88% | 1011.8 hPa | 0 mm | - | 1 W/m² | - |
| 1778200530 | 22.78° C | 88% | 1011.9 hPa | 0 mm | - | 2 W/m² | - |
| 1778200228 | 22.78° C | 87% | 1011.9 hPa | 0 mm | - | 4 W/m² | - |
| 1778199924 | 22.78° C | 87% | 1012.1 hPa | 0 mm | - | 5 W/m² | - |
| 1778199621 | 22.78° C | 87% | 1011.8 hPa | 0 mm | - | 7 W/m² | - |
| 1778199317 | 23.33° C | 87% | 1012 hPa | 0 mm | - | 10 W/m² | - |
| 1778199013 | 23.33° C | 87% | 1011.9 hPa | 0 mm | - | 13 W/m² | - |
| 1778198709 | 23.33° C | 86% | 1011.6 hPa | 0 mm | - | 18 W/m² | - |
| 1778198407 | 23.33° C | 86% | 1011.9 hPa | 0 mm | - | 23 W/m² | - |
| 1778198103 | 23.33° C | 86% | 1012 hPa | 0 mm | - | 33 W/m² | - |
| 1778197801 | 23.33° C | 86% | 1011.9 hPa | 0 mm | - | 39 W/m² | - |
* Rain latest hour (hover to see other rain measurements)
** Current wind speed in m/s (hover to see current wind gust speed)